星链-32470 (STARLINK-32470)

导读 | 豆包AI

STARLINK-32470是美国太空探索技术公司SpaceX于2024年11月27日发射的星链卫星,属于星链(Starlink)全球低轨卫星互联网星座的组成部分。星链项目旨在通过部署数千颗低轨卫星,为全球尤其是地面网络难以覆盖的偏远地区,提供高速、低延迟的宽带互联网接入服务,同时可支持军事通信、应急互联等多元场景应用,目前已进入在轨运行阶段。

基本信息
目录编号:
62115
目录名称:
STARLINK-32470
国际标识:
2024-222B
轨道中心:
EARTH
卫星名称:
星链-32470
卫星全名:
星链-32470 (STARLINK-32470)
卫星状态:
在轨 (已飞行473 天)
发射日期:
2024-11-27 UTC
国别 :
美国 (US)
星等 :
--
轨道信息
数据来源 国际轨道数据
星历时间: 2026-03-15T03:21:51+0800
10小时前
查看轨道信息
半长轴: 6861.129km
偏心率: 0.0001193
轨道倾角: 43.002°
近地点辐角 261.699°
升交点赤经 107.110°
平近点角 98.372°
近地点: 482.173km
远地点: 483.811km
周期: 94.266分钟
每日圈数: 15.275994
详细信息
固有亮度:
5
最大亮度:
2.5
卫星平台:
Starlink V1.0
覆盖范围:
全球
运营商:
太空探索技术公司
运营商所在国:
美国
制造商(研发单位):
太空探索技术公司
制造商所在国:
美国
使用方式:
暂无
卫星简介
Starlink 计划是 SpaceX 推出的全球卫星互联网项目,通过发射低轨道卫星,为全球尤其是偏远地区提供高速、低延迟的互联网服务。自 2019 年起,Starlink 已部署数千颗卫星,旨在缩小全球数字鸿沟,推动互联网普及。该项目还为军事、航空等行业提供通信支持,带来广泛经济效益。
2D轨道图
3D轨道图
轨道高度分析图
轨道倾角分析图
轨道综合分析图
查看轨道综合分析图